Regional Weather Roundup
Issued by NWS

Home | Current Version | Previous Version | Graphics & Text | Print | Product List | Glossary On
Versions: 1 2 3 4 5 6 7 8 9 10 11 12 13 14 15 16 17 18 19 20 21 22 23 24 25 26 27 28 29 30 31 32 33 34 35 36 37 38 39 40 41 42 43 44 45 46 47 48 49 50
000
ASUS43 KOAX 230302
RWRNE

WEATHER ROUNDUP FOR NEBRASKA
NATIONAL WEATHER SERVICE OMAHA NE
1000 PM CDT SUN OCT 22 2017

NOTES: SATELLITE DATA IS BEING USED TO AUGMENT CLOUD COVER ABOVE
       12000 FEET.
       "FAIR" INDICATES FEW OR NO CLOUDS BELOW 12,000 FEET WITH NO
       SIGNIFICANT WEATHER AND/OR OBSTRUCTIONS TO VISIBILITY.


NEZ001>004-019>022-054>056-230400-
NEBRASKA PANHANDLE

CITY           SKY/WX    TMP DP  RH WIND       PRES   REMARKS
SCOTTSBLUFF    CLOUDY    61  29  29 W17       30.00F
ALLIANCE       CLEAR     58  29  33 W17       29.98R
CHADRON        PTCLDY    54  27  35 SW6       29.93S
GORDON         MOCLDY    53  33  47 SW8       29.94S
KIMBALL        CLOUDY    55  27  34 W13       30.08S
SIDNEY         CLOUDY    54  28  36 W13       30.06R
$$

NEZ057>060-069>072-079>082-230400-
SOUTHWEST NEBRASKA

CITY           SKY/WX    TMP DP  RH WIND       PRES   REMARKS
NORTH PLATTE   CLEAR     48  36  63 NW3       29.98R
IMPERIAL       CLEAR     50  30  46 NW5       30.02S
LEXINGTON      CLEAR     57  28  31 SW9       29.97S
MCCOOK         CLEAR     55  26  32 W13       30.00R
OGALLALA       CLEAR     46  33  61 CALM      30.01S
$$

NEZ005>010-023>029-035>040-094-230400-
NORTH CENTRAL NEBRASKA

CITY           SKY/WX    TMP DP  RH WIND       PRES   REMARKS
VALENTINE      CLOUDY    53  35  50 SW9       29.88S
AINSWORTH      CLOUDY    53  35  50 SW12      29.88F
BROKEN BOW     CLEAR     44  35  70 CALM      29.95R
O`NEILL        CLEAR     51  37  57 S7        29.89F
ORD            CLOUDY    50  32  50 SW9       29.92F
THEDFORD       CLOUDY    53  35  51 SW8       29.95S
$$

NEZ041-046>049-061>064-073>077-083>087-230400-
SOUTH CENTRAL NEBRASKA

CITY           SKY/WX    TMP DP  RH WIND       PRES   REMARKS
GRAND ISLAND   PTCLDY    52  32  46 S10       29.97F
AURORA         CLOUDY    55  30  38 SW9       29.98S
HASTINGS       PTCLDY    52  29  41 S7        29.99S
HEBRON         PTCLDY    55  30  39 S10       30.00F
HOLDREGE       CLOUDY    51  29  42 SW7       29.98F
KEARNEY        PTCLDY    55  28  35 SW10      29.98S
YORK           CLOUDY    54  32  43 S10       29.98S
$$

NEZ011>018-030>034-042>045-230400-
NORTHEAST NEBRASKA

CITY           SKY/WX    TMP DP  RH WIND       PRES   REMARKS
NORFOLK        CLEAR     55  31  39 S16       29.91S
ALBION         PTCLDY    53  33  46 SE3       29.93F
BLAIR          CLEAR     55  33  42 S12       29.96F
FREMONT        CLEAR     58  30  35 S8        29.96F
TEKAMAH        CLEAR     47  33  58 S6        29.95F
WAYNE          CLEAR     51  27  39 SW5       29.91S
$$

NEZ050>053-065>068-078-088>093-230400-
SOUTHEAST NEBRASKA

CITY           SKY/WX    TMP DP  RH WIND       PRES   REMARKS
LINCOLN        CLEAR     49  35  58 S8        29.99F
OMAHA EPPLEY   CLEAR     53  35  50 S9        29.97F
BEATRICE       CLEAR     54  33  45 S9        30.00F
FALLS CITY     CLEAR     51  36  56 S8        30.04R
NEBRASKA CITY  CLEAR     52  35  51 S10       30.01F
PLATTSMOUTH    CLEAR     53  33  46 S10       29.99F
$$

NEZ044-045-051>053-067-230400-
OMAHA AREA

CITY           SKY/WX    TMP DP  RH WIND       PRES   REMARKS
OMAHA EPPLEY   CLEAR     53  35  50 S9        29.97F
BLAIR          CLEAR     55  33  42 S12       29.96F
FREMONT        CLEAR     58  30  35 S8        29.96F
MILLARD        CLEAR     56  34  43 S5        29.97F
OFFUTT AFB     CLEAR     45  36  71 E7        29.97F
PLATTSMOUTH    CLEAR     53  33  46 S10       29.99F
WAHOO          FAIR      47  34  59 S6        29.96F
$$



USA.gov is the U.S. government's official web portal to all federal, state and local government web resources and services.